period_start,C,m1,H,J0,J1,J2,J3,J4,J5,JA,JB,JC,JD,JJ,JK,JN,#
2014-09-12 00:02:34,0.03,0.19,0.00,26.61,30.97,33.26,9.40,39.88,1010.74,2022.08,3438.40,3233.79,3507.96,500.18,488.23,4.51,0000 0000 0000 0000 000000
2014-09-12 00:07:35,0.04,0.20,0.00,26.61,30.96,33.25,9.41,39.81,1010.75,2022.10,3437.58,3233.03,3507.16,499.86,487.52,4.55,0000 0000 0000 0000 000000
2014-09-12 00:12:36,0.07,0.20,0.00,26.62,30.95,33.25,9.37,39.76,1010.76,2022.10,3436.32,3232.23,3506.30,500.04,487.91,4.59,0000 0000 0000 0000 000000
2014-09-12 00:17:38,0.00,0.20,0.00,26.63,30.95,33.24,9.38,39.76,1010.76,2022.09,3435.98,3232.00,3506.00,499.69,487.65,4.63,0000 0000 0000 0000 000000
2014-09-12 00:22:39,0.02,0.20,0.00,26.63,30.95,33.25,9.41,39.79,1010.76,2022.05,3435.53,3231.87,3505.75,500.20,488.04,4.67,0000 0000 0000 0000 000000
2014-09-12 00:27:40,0.02,0.20,0.00,26.65,30.95,33.25,9.39,39.56,1010.76,2022.13,3435.08,3231.71,3505.45,499.92,487.92,4.71,0000 0000 0000 0000 000000
2014-09-12 00:32:41,0.01,0.20,0.00,26.66,30.95,33.25,9.49,39.79,1010.76,2022.10,3435.00,3231.29,3505.11,500.35,488.02,4.76,0000 0000 0000 0000 000000
2014-09-12 00:37:42,0.00,0.20,0.00,26.67,30.95,33.25,9.37,39.52,1010.76,2022.08,3434.98,3231.01,3505.00,500.02,487.64,4.80,0000 0000 0000 0000 000000
2014-09-12 00:42:44,0.03,0.20,0.00,26.67,30.95,33.25,9.40,39.67,1010.76,2022.17,3434.55,3231.00,3504.99,499.94,487.76,4.84,0000 0000 0000 0000 000000
2014-09-12 00:47:45,0.02,0.21,0.00,26.67,30.95,33.25,9.45,39.75,1010.76,2022.38,3434.05,3231.00,3504.95,500.32,488.07,4.88,0000 0000 0000 0000 000000
2014-09-12 00:52:46,-0.00,0.21,0.00,26.66,30.95,33.25,9.41,39.79,1010.76,2022.37,3434.00,3230.96,3504.62,499.65,487.26,4.92,0000 0000 0000 0000 000000
2014-09-12 00:57:47,0.03,0.21,0.00,26.65,30.95,33.25,9.40,39.58,1010.76,2022.42,3433.78,3230.80,3504.16,499.86,487.69,4.97,0000 0000 0000 0000 000000
2014-09-12 01:02:48,0.07,0.21,0.00,26.65,30.94,33.25,9.40,39.63,1010.76,2022.67,3433.04,3230.13,3504.00,500.15,488.08,5.01,0000 0000 0000 0000 000000
2014-09-12 01:07:49,0.02,0.21,0.00,26.65,30.93,33.23,9.40,39.62,1010.76,2022.73,3432.62,3229.86,3503.71,500.37,488.19,5.05,0000 0000 0000 0000 000000
2014-09-12 01:12:50,0.11,0.21,0.00,26.66,30.93,33.25,9.34,39.57,1010.76,2022.74,3430.64,3228.74,3502.33,499.65,487.38,5.09,0000 0000 0000 0000 000000
2014-09-12 01:17:51,0.04,0.22,0.00,26.67,30.93,33.25,9.45,39.67,1010.76,2022.65,3429.27,3227.93,3501.34,499.96,487.70,5.13,0000 0000 0000 0000 000000
2014-09-12 01:22:53,0.03,0.22,0.00,26.66,30.92,33.24,9.42,39.62,1010.76,2022.62,3428.63,3227.36,3501.00,499.95,487.76,5.17,0000 0000 0000 0000 000000
2014-09-12 01:27:54,0.02,0.22,0.00,26.67,30.92,33.25,9.42,39.63,1010.76,2022.77,3428.04,3227.03,3500.94,499.94,487.67,5.22,0000 0000 0000 0000 000000
2014-09-12 01:32:55,0.08,0.22,0.00,26.65,30.92,33.25,9.42,39.67,1010.76,2022.87,3427.09,3226.50,3500.12,500.09,487.81,5.26,0000 0000 0000 0000 000000
2014-09-12 01:37:56,0.14,0.23,0.00,26.64,30.92,33.24,9.42,39.37,1010.76,2022.93,3424.41,3224.75,3498.31,499.61,487.56,5.30,0000 0000 0000 0000 000000
2014-09-12 01:42:57,0.05,0.23,0.00,26.65,30.92,33.23,9.37,39.00,1010.76,2022.96,3422.84,3223.97,3497.17,499.79,487.59,5.34,0000 0000 0000 0000 000000
2014-09-12 01:47:58,0.04,0.23,0.00,26.65,30.92,33.24,9.42,39.34,1010.76,2022.93,3421.91,3223.16,3496.62,500.36,488.26,5.38,0000 0000 0000 0000 000000
2014-09-12 01:52:59,0.02,0.24,0.00,26.65,30.92,33.24,9.40,39.42,1010.78,2022.95,3421.07,3222.97,3496.02,500.21,488.12,5.43,0000 0000 0000 0000 000000
2014-09-12 01:58:00,0.00,0.24,0.00,26.66,30.92,33.22,9.38,39.52,1010.77,2022.92,3420.94,3222.79,3496.00,499.74,487.58,5.47,0000 0000 0000 0000 000000
2014-09-12 02:03:01,0.00,0.24,0.00,26.65,30.92,33.22,9.42,39.36,1010.77,2022.93,3420.86,3222.74,3495.99,500.03,487.81,5.51,0000 0000 0000 0000 000000
2014-09-12 02:08:02,0.01,0.24,0.00,26.67,30.92,33.24,9.43,39.73,1010.78,2022.95,3420.81,3222.73,3495.98,499.78,487.58,5.55,0000 0000 0000 0000 000000
2014-09-12 02:13:03,0.04,0.24,0.00,26.68,30.91,33.23,9.35,39.38,1010.77,2022.96,3420.08,3222.11,3495.67,500.06,487.84,5.59,0000 0000 0000 0000 000000
2014-09-12 02:18:04,0.00,0.24,0.00,26.67,30.91,33.23,9.36,39.58,1010.77,2022.98,3420.00,3222.01,3495.45,499.81,487.72,5.63,0000 0000 0000 0000 000000
2014-09-12 02:23:05,0.00,0.24,0.00,26.67,30.90,33.21,9.38,39.34,1010.77,2022.97,3420.00,3222.02,3495.35,499.80,487.51,5.68,0000 0000 0000 0000 000000
2014-09-12 02:28:06,0.00,0.24,0.00,26.68,30.90,33.23,9.45,39.26,1010.78,2022.94,3419.99,3222.00,3495.07,500.28,488.03,5.72,0000 0000 0000 0000 000000
2014-09-12 02:33:07,-0.00,0.24,0.00,26.65,30.90,33.23,9.34,39.27,1010.81,2022.90,3419.97,3222.00,3495.02,499.49,487.19,5.76,0000 0000 0000 0000 000000
2014-09-12 02:38:08,0.01,0.24,0.00,26.65,30.90,33.22,9.44,39.67,1011.01,2022.96,3419.95,3222.00,3495.02,499.98,487.88,5.80,0000 0000 0000 0000 000000
2014-09-12 02:43:10,0.00,0.24,0.00,26.65,30.90,33.22,9.43,39.67,1011.23,2022.98,3419.97,3222.00,3495.03,500.26,488.23,5.84,0000 0000 0000 0000 000000
2014-09-12 02:48:11,0.00,0.24,0.00,26.66,30.90,33.22,9.44,39.58,1011.24,2022.96,3419.96,3222.00,3495.01,500.13,488.41,5.89,0000 0000 0000 0000 000000
2014-09-12 02:53:12,-0.00,0.24,0.00,26.65,30.90,33.22,9.40,39.70,1011.21,2022.98,3419.96,3222.00,3495.01,500.00,487.97,5.93,0000 0000 0000 0000 000000
2014-09-12 02:58:13,-0.00,0.24,0.00,26.63,30.90,33.24,9.40,39.27,1011.17,2022.98,3419.93,3222.00,3495.01,499.63,487.92,5.97,0000 0000 0000 0000 000000
2014-09-12 03:03:14,0.00,0.24,0.00,26.65,30.90,33.22,9.44,39.31,1011.13,2022.97,3419.72,3222.00,3495.00,500.60,488.64,6.01,0000 0000 0000 0000 000000
2014-09-12 03:08:16,0.00,0.24,0.00,26.64,30.90,33.21,9.40,39.50,1011.16,2022.95,3419.44,3221.98,3495.00,499.37,487.44,6.05,0000 0000 0000 0000 000000
2014-09-12 03:13:17,0.00,0.24,0.00,26.63,30.90,33.21,9.46,39.64,1011.10,2022.96,3419.22,3221.98,3495.00,500.73,488.71,6.09,0000 0000 0000 0000 000000
2014-09-12 03:18:18,0.00,0.24,0.00,26.64,30.90,33.22,9.46,39.40,1011.13,2022.98,3419.10,3221.98,3494.99,500.60,488.65,6.14,0000 0000 0000 0000 000000
2014-09-12 03:23:19,0.00,0.24,0.00,26.64,30.90,33.20,9.35,39.32,1011.15,2022.98,3419.06,3221.96,3494.99,499.78,487.83,6.18,0000 0000 0000 0000 000000
2014-09-12 03:28:20,0.00,0.24,0.00,26.63,30.90,33.22,9.43,39.66,1011.15,2022.99,3419.02,3221.93,3494.99,500.62,488.55,6.22,0000 0000 0000 0000 000000
2014-09-12 03:33:21,0.00,0.24,0.00,26.66,30.90,33.21,9.29,39.52,1011.17,2022.98,3419.00,3221.76,3494.94,499.43,487.48,6.26,0000 0000 0000 0000 000000
2014-09-12 03:38:23,0.01,0.24,0.00,26.64,30.90,33.20,9.42,39.57,1011.17,2022.98,3418.99,3221.51,3494.80,500.05,488.29,6.30,0000 0000 0000 0000 000000
2014-09-12 03:43:24,0.00,0.24,0.00,26.66,30.90,33.21,9.44,39.66,1011.17,2022.98,3418.99,3221.37,3494.66,500.12,488.13,6.35,0000 0000 0000 0000 000000
2014-09-12 03:48:25,0.00,0.24,0.00,26.64,30.90,33.22,9.33,39.32,1011.21,2022.99,3418.97,3221.25,3494.55,499.57,487.67,6.39,0000 0000 0000 0000 000000
2014-09-12 03:53:26,0.00,0.24,0.00,26.62,30.90,33.22,9.40,39.53,1011.23,2022.99,3418.97,3221.21,3494.47,500.58,488.64,6.43,0000 0000 0000 0000 000000
2014-09-12 03:58:27,0.01,0.24,0.00,26.63,30.90,33.22,9.42,39.53,1011.23,2022.97,3418.86,3221.05,3494.09,500.11,488.27,6.47,0000 0000 0000 0000 000000
2014-09-12 04:03:28,0.01,0.24,0.00,26.65,30.90,33.21,9.26,38.97,1011.24,2022.99,3418.63,3221.03,3494.02,499.42,487.56,6.51,0000 0000 0000 0000 000000
2014-09-12 04:08:29,0.00,0.24,0.00,26.67,30.90,33.21,9.39,39.23,1011.24,2022.98,3418.28,3221.01,3494.01,499.78,487.72,6.56,0000 0000 0000 0000 000000
2014-09-12 04:13:30,0.00,0.24,0.00,26.64,30.90,33.21,9.34,39.16,1011.25,2022.99,3418.16,3221.01,3494.01,499.73,487.81,6.60,0000 0000 0000 0000 000000
2014-09-12 04:18:31,0.00,0.24,0.00,26.63,30.90,33.21,9.44,39.23,1011.25,2022.99,3418.07,3221.00,3494.00,500.55,488.50,6.64,0000 0000 0000 0000 000000
2014-09-12 04:23:32,-0.00,0.24,0.00,26.64,30.90,33.23,9.36,39.08,1011.27,2022.98,3418.01,3221.00,3494.00,500.11,488.30,6.68,0000 0000 0000 0000 000000
2014-09-12 04:28:34,0.00,0.24,0.00,26.63,30.90,33.22,9.29,38.77,1011.27,2022.99,3418.01,3221.00,3494.00,499.91,487.98,6.72,0000 0000 0000 0000 000000
2014-09-12 04:33:35,0.00,0.24,0.00,26.64,30.90,33.22,9.41,39.02,1011.27,2022.99,3418.00,3220.99,3493.99,500.06,488.17,6.76,0000 0000 0000 0000 000000
2014-09-12 04:38:35,0.00,0.24,0.00,26.63,30.90,33.22,9.37,38.84,1011.29,2022.99,3417.96,3220.98,3493.97,499.44,487.41,6.81,0000 0000 0000 0000 000000
2014-09-12 04:43:36,0.05,0.24,0.00,26.64,30.90,33.23,9.46,39.23,1011.29,2022.99,3417.15,3220.50,3493.39,500.20,488.33,6.85,0000 0000 0000 0000 000000
2014-09-12 04:48:38,0.02,0.24,0.00,26.66,30.90,33.23,9.37,38.88,1011.34,2022.98,3416.69,3220.03,3493.01,499.54,487.68,6.89,0000 0000 0000 0000 000000
2014-09-12 04:53:39,0.00,0.25,0.00,26.66,30.90,33.22,9.38,39.02,1011.37,2022.99,3416.06,3219.99,3492.98,500.49,488.55,6.93,0000 0000 0000 0000 000000
2014-09-12 04:58:40,0.01,0.25,0.00,26.65,30.90,33.22,9.42,39.22,1011.45,2022.99,3415.98,3219.92,3492.71,500.03,488.08,6.97,0000 0000 0000 0000 000000
2014-09-12 05:03:41,0.03,0.25,0.00,26.63,30.90,33.22,9.46,38.92,1011.58,2022.97,3415.57,3219.43,3492.09,499.86,488.11,7.01,0000 0000 0000 0000 000000
2014-09-12 05:08:42,0.02,0.25,0.00,26.63,30.90,33.22,9.37,38.76,1011.55,2022.99,3414.96,3219.07,3491.94,498.99,487.31,7.06,0000 0000 0000 0000 000000
2014-09-12 05:13:44,0.07,0.25,0.00,26.65,30.90,33.21,9.36,38.87,1011.54,2022.98,3413.89,3218.23,3490.99,499.85,487.93,7.10,0000 0000 0000 0000 000000
2014-09-12 05:18:44,0.08,0.25,0.00,26.66,30.90,33.22,9.36,39.08,1011.52,2022.98,3412.40,3217.06,3489.78,499.17,487.37,7.14,0000 0000 0000 0000 000000
2014-09-12 05:23:46,0.10,0.26,0.00,26.65,30.90,33.22,9.42,39.01,1011.56,2022.95,3410.69,3215.68,3488.39,500.12,488.24,7.18,0000 0000 0000 0000 000000
2014-09-12 05:28:46,0.05,0.26,0.00,26.64,30.90,33.21,9.39,38.88,1011.61,2022.96,3409.27,3214.76,3487.20,500.31,488.54,7.22,0000 0000 0000 0000 000000
2014-09-12 05:33:47,0.03,0.26,0.00,26.64,30.90,33.22,9.37,39.03,1011.66,2022.97,3408.83,3214.08,3486.96,500.18,488.58,7.27,0000 0000 0000 0000 000000
2014-09-12 05:38:48,0.03,0.26,0.00,26.60,30.90,33.21,9.37,38.73,1011.68,2022.98,3408.04,3213.86,3486.18,499.57,488.10,7.31,0000 0000 0000 0000 000000
2014-09-12 05:43:50,0.04,0.27,0.00,26.62,30.90,33.22,9.43,39.38,1011.67,2022.98,3407.24,3213.12,3485.87,499.95,488.18,7.35,0000 0000 0000 0000 000000
2014-09-12 05:48:52,0.02,0.27,0.00,26.62,30.90,33.21,9.42,39.13,1011.72,2022.99,3406.86,3213.00,3485.11,500.11,488.41,7.39,0000 0000 0000 0000 000000
2014-09-12 05:53:53,0.00,0.27,0.00,26.61,30.90,33.21,9.35,39.00,1011.71,2022.99,3406.70,3212.98,3485.03,499.42,487.88,7.43,0000 0000 0000 0000 000000
2014-09-12 05:58:54,0.01,0.27,0.00,26.62,30.89,33.21,9.39,39.44,1011.72,2022.98,3406.24,3212.84,3485.00,500.25,488.67,7.47,0000 0000 0000 0000 000000
2014-09-12 06:03:55,0.01,0.27,0.00,26.62,30.89,33.20,9.39,39.29,1011.73,2022.96,3406.03,3212.57,3485.00,500.01,488.30,7.52,0000 0000 0000 0000 000000
2014-09-12 06:08:56,0.00,0.27,0.00,26.62,30.89,33.21,9.31,38.89,1011.72,2022.96,3406.00,3212.35,3484.99,499.67,488.02,7.56,0000 0000 0000 0000 000000
2014-09-12 06:13:57,0.00,0.27,0.00,26.63,30.88,33.19,9.38,39.48,1011.73,2022.95,3406.00,3212.16,3484.98,499.64,488.09,7.60,0000 0000 0000 0000 000000
2014-09-12 06:18:58,0.00,0.27,0.00,26.63,30.88,33.20,9.44,39.56,1011.73,2022.96,3406.01,3212.07,3484.94,500.08,488.57,7.64,0000 0000 0000 0000 000000
2014-09-12 06:24:00,0.00,0.27,0.00,26.65,30.88,33.21,9.36,39.05,1011.73,2022.97,3406.00,3212.05,3484.92,499.49,487.92,7.68,0000 0000 0000 0000 000000
2014-09-12 06:29:01,0.00,0.27,0.00,26.65,30.89,33.20,9.41,39.33,1011.73,2022.97,3406.00,3212.03,3484.76,499.97,488.26,7.73,0000 0000 0000 0000 000000
2014-09-12 06:34:02,0.00,0.27,0.00,26.63,30.89,33.21,9.44,39.13,1011.73,2022.96,3405.99,3212.01,3484.55,500.09,488.40,7.77,0000 0000 0000 0000 000000
2014-09-12 06:39:03,0.00,0.27,0.00,26.65,30.89,33.21,9.35,38.83,1011.73,2022.97,3405.98,3212.00,3484.28,500.05,488.33,7.81,0000 0000 0000 0000 000000
2014-09-12 06:44:04,-0.00,0.27,0.00,26.64,30.90,33.22,9.39,39.33,1011.74,2022.96,3405.94,3212.00,3484.25,499.82,488.16,7.85,0000 0000 0000 0000 000000
2014-09-12 06:49:05,0.00,0.27,0.00,26.66,30.90,33.20,9.46,39.30,1011.75,2022.90,3405.68,3212.00,3484.03,499.99,488.36,7.89,0000 0000 0000 0000 000000
2014-09-12 06:54:06,0.01,0.27,0.00,26.65,30.90,33.20,9.46,39.00,1011.78,2022.90,3405.51,3211.99,3484.00,500.50,488.77,7.94,0000 0000 0000 0000 000000
2014-09-12 06:59:08,0.00,0.27,0.00,26.64,30.90,33.20,9.37,38.92,1011.93,2022.94,3405.63,3211.99,3484.00,499.87,488.35,7.98,0000 0000 0000 0000 000000
2014-09-12 07:04:09,-0.00,0.27,0.00,26.63,30.90,33.21,9.43,38.97,1011.91,2022.96,3405.72,3211.99,3484.01,499.50,487.86,8.02,0000 0000 0000 0000 000000
2014-09-12 07:09:10,0.01,0.27,0.00,26.62,30.90,33.21,9.46,38.70,1011.96,2022.95,3405.33,3211.98,3484.00,499.94,487.84,8.06,0000 0000 0000 0000 000000
2014-09-12 07:14:11,0.00,0.27,0.00,26.62,30.90,33.23,9.40,38.89,1012.07,2022.94,3405.09,3211.96,3484.00,499.43,487.91,8.10,0000 0000 0000 0000 000000
2014-09-12 07:19:12,-0.00,0.27,0.00,26.62,30.90,33.21,9.34,38.66,1012.02,2022.96,3405.10,3211.96,3484.00,499.57,488.23,8.14,0000 0000 0000 0000 000000
2014-09-12 07:24:13,-0.00,0.27,0.00,26.61,30.90,33.21,9.34,38.95,1011.95,2022.92,3405.04,3211.92,3483.99,499.84,488.38,8.19,0000 0000 0000 0000 000000
2014-09-12 07:29:14,-0.01,0.27,0.00,26.62,30.90,33.21,9.36,38.79,1012.14,2022.90,3405.02,3211.88,3483.99,499.29,487.85,8.23,0000 0000 0000 0000 000000
2014-09-12 07:34:15,0.00,0.27,0.00,26.64,30.90,33.20,9.35,38.91,1012.15,2022.89,3405.01,3211.86,3483.98,499.82,488.72,8.27,0000 0000 0000 0000 000000
2014-09-12 07:39:16,0.00,0.27,0.00,26.62,30.90,33.20,9.40,39.03,1012.17,2022.91,3405.01,3211.69,3483.99,499.79,488.35,8.31,0000 0000 0000 0000 000000
2014-09-12 07:44:17,-0.01,0.27,0.00,26.61,30.90,33.21,9.41,38.98,1012.19,2022.80,3405.00,3211.40,3483.94,500.05,488.69,8.35,0000 0000 0000 0000 000000
2014-09-12 07:49:19,0.00,0.27,0.00,26.61,30.90,33.21,9.47,39.19,1012.21,2022.84,3405.00,3211.45,3483.97,500.54,489.24,8.40,0000 0000 0000 0000 000000
2014-09-12 07:54:20,0.01,0.27,0.00,26.59,30.90,33.21,9.46,38.92,1012.21,2022.87,3405.00,3211.35,3483.94,499.49,488.27,8.44,0000 0000 0000 0000 000000
2014-09-12 07:59:21,0.01,0.27,0.00,26.60,30.90,33.21,9.39,39.06,1012.22,2022.91,3404.99,3211.26,3483.92,499.57,488.42,8.48,0000 0000 0000 0000 000000
2014-09-12 08:04:22,-0.00,0.27,0.00,26.60,30.90,33.20,9.39,39.26,1012.22,2022.80,3404.99,3211.12,3483.72,499.78,488.44,8.52,0000 0000 0000 0000 000000
2014-09-12 08:09:24,-0.01,0.27,0.00,26.61,30.90,33.21,9.33,39.20,1012.22,2022.64,3404.97,3211.05,3483.43,499.14,487.90,8.56,0000 0000 0000 0000 000000
2014-09-12 08:14:25,0.01,0.27,0.00,26.61,30.90,33.22,9.43,38.88,1012.22,2022.64,3404.93,3211.04,3483.32,499.56,488.06,8.60,0000 0000 0000 0000 000000
2014-09-12 08:19:26,0.01,0.27,0.00,26.62,30.90,33.22,9.41,38.53,1012.23,2022.73,3404.94,3211.03,3483.39,499.61,488.23,8.65,0000 0000 0000 0000 000000
2014-09-12 08:24:27,0.01,0.27,0.00,26.64,30.90,33.21,9.43,38.72,1012.23,2022.84,3404.97,3211.04,3483.55,499.87,488.52,8.69,0000 0000 0000 0000 000000
2014-09-12 08:29:28,0.02,0.27,0.00,26.63,30.90,33.20,9.41,39.14,1012.27,2022.92,3404.61,3211.05,3483.37,499.59,488.24,8.73,0000 0000 0000 0000 000000
2014-09-12 08:34:30,0.07,0.27,0.00,26.62,30.90,33.20,9.38,38.84,1012.49,2022.92,3403.26,3210.45,3482.51,499.76,488.51,8.77,0000 0000 0000 0000 000000
2014-09-12 08:39:31,0.07,0.28,0.00,26.61,30.90,33.21,9.40,39.00,1012.66,2022.93,3401.79,3209.39,3481.53,499.63,488.45,8.81,0000 0000 0000 0000 000000
2014-09-12 08:44:32,0.03,0.28,0.00,26.61,30.90,33.21,9.41,39.04,1012.70,2022.97,3400.76,3208.91,3480.96,499.80,488.58,8.86,0000 0000 0000 0000 000000
2014-09-12 08:49:34,0.06,0.28,0.00,26.62,30.90,33.22,9.37,38.62,1012.71,2022.97,3399.81,3208.12,3480.19,499.46,487.84,8.90,0000 0000 0000 0000 000000
2014-09-12 08:54:35,0.01,0.28,0.00,26.64,30.89,33.21,9.44,39.27,1012.71,2022.98,3399.04,3207.99,3479.99,500.58,489.52,8.94,0000 0000 0000 0000 000000
2014-09-12 08:59:36,-0.00,0.28,0.00,26.63,30.89,33.22,9.48,39.42,1012.71,2022.98,3399.00,3207.99,3479.99,499.78,488.72,8.98,0000 0000 0000 0000 000000
2014-09-12 09:04:37,0.00,0.28,0.00,26.62,30.88,33.19,9.45,39.30,1012.71,2022.98,3399.00,3207.96,3479.98,499.82,488.56,9.02,0000 0000 0000 0000 000000
2014-09-12 09:09:38,-0.00,0.28,0.00,26.60,30.87,33.20,9.20,38.23,1012.71,2022.98,3399.01,3207.96,3479.95,498.86,487.63,9.06,0000 0000 0000 0000 000000
2014-09-12 09:14:39,0.16,0.29,0.00,26.59,30.87,33.20,9.48,38.98,1012.71,2022.98,3397.39,3206.36,3478.27,500.71,489.27,9.11,0000 0000 0000 0000 000000
2014-09-12 09:19:40,0.22,0.30,0.00,26.59,30.87,33.21,9.38,38.73,1012.71,2022.98,3393.43,3202.93,3474.68,499.97,488.77,9.15,0000 0000 0000 0000 000000
2014-09-12 09:24:42,0.01,0.30,0.00,26.58,30.87,33.19,9.39,38.72,1012.71,2022.98,3392.90,3202.20,3474.01,500.19,489.07,9.19,0000 0000 0000 0000 000000
2014-09-12 09:29:43,-0.01,0.30,0.00,26.57,30.87,33.19,9.42,38.97,1012.71,2022.99,3392.93,3202.44,3474.05,498.97,487.81,9.23,0000 0000 0000 0000 000000
2014-09-12 09:34:44,0.02,0.30,0.00,26.59,30.87,33.19,9.30,38.54,1012.72,2022.99,3392.54,3202.11,3474.00,499.65,488.47,9.27,0000 0000 0000 0000 000000
2014-09-12 09:39:45,0.00,0.30,0.00,26.60,30.86,33.19,9.28,38.44,1012.73,2022.99,3392.33,3202.09,3474.00,499.21,488.10,9.32,0000 0000 0000 0000 000000
2014-09-12 09:44:46,0.00,0.30,0.00,26.60,30.85,33.19,9.55,38.65,1012.73,2022.99,3392.10,3202.03,3474.00,500.76,489.42,9.36,0000 0000 0000 0000 000000
2014-09-12 09:49:47,0.05,0.30,0.00,26.57,30.85,33.20,9.55,38.63,1012.73,2022.99,3391.55,3201.73,3473.50,500.74,489.74,9.40,0000 0000 0000 0000 000000
2014-09-12 09:54:48,0.01,0.30,0.00,26.57,30.85,33.17,9.35,38.57,1012.76,2022.98,3390.99,3201.07,3473.00,499.59,488.59,9.44,0000 0000 0000 0000 000000
2014-09-12 09:59:49,-0.00,0.30,0.00,26.55,30.85,33.17,9.41,38.88,1012.87,2022.98,3390.97,3201.05,3472.99,499.67,488.61,9.48,0000 0000 0000 0000 000000
2014-09-12 10:04:50,0.00,0.30,0.00,26.57,30.85,33.17,9.39,38.29,1013.02,2022.99,3390.95,3201.04,3472.99,499.68,488.85,9.52,0000 0000 0000 0000 000000
2014-09-12 10:09:51,0.00,0.30,0.00,26.57,30.85,33.17,9.40,38.74,1013.07,2022.98,3390.62,3201.02,3472.97,499.40,488.48,9.57,0000 0000 0000 0000 000000
2014-09-12 10:14:52,0.01,0.31,0.00,26.56,30.85,33.17,9.30,38.00,1013.09,2022.98,3390.11,3201.00,3472.85,499.03,488.14,9.61,0000 0000 0000 0000 000000
2014-09-12 10:19:54,0.01,0.31,0.00,26.56,30.84,33.16,9.42,38.92,1013.13,2022.99,3390.01,3201.00,3472.41,499.60,488.78,9.65,0000 0000 0000 0000 000000
2014-09-12 10:24:54,0.00,0.31,0.00,26.55,30.83,33.16,9.40,37.98,1013.20,2022.99,3390.00,3201.00,3472.13,500.36,489.65,9.69,0000 0000 0000 0000 000000
2014-09-12 10:29:55,-0.00,0.31,0.00,26.55,30.83,33.16,9.30,38.67,1013.20,2022.99,3390.00,3200.99,3472.22,499.73,488.92,9.73,0000 0000 0000 0000 000000
2014-09-12 10:34:56,0.00,0.31,0.00,26.53,30.82,33.15,9.46,38.91,1013.20,2022.99,3390.00,3200.99,3472.14,499.87,489.13,9.78,0000 0000 0000 0000 000000
2014-09-12 10:39:57,0.00,0.31,0.00,26.51,30.82,33.16,9.40,38.73,1013.20,2022.99,3389.99,3200.99,3472.06,500.33,489.61,9.82,0000 0000 0000 0000 000000
2014-09-12 10:44:58,0.00,0.31,0.00,26.50,30.82,33.15,9.39,38.67,1013.20,2022.99,3389.99,3200.99,3472.06,499.29,488.64,9.86,0000 0000 0000 0000 000000
2014-09-12 10:50:00,0.00,0.31,0.00,26.49,30.82,33.13,9.37,38.50,1013.20,2022.99,3389.99,3200.99,3472.06,499.97,489.14,9.90,0000 0000 0000 0000 000000
2014-09-12 10:55:01,0.00,0.31,0.00,26.52,30.82,33.14,9.34,38.47,1013.20,2022.99,3389.99,3200.99,3472.08,499.14,488.69,9.94,0000 0000 0000 0000 000000
2014-09-12 11:00:02,0.00,0.31,0.00,26.51,30.82,33.14,9.49,38.85,1013.22,2022.99,3389.99,3200.99,3472.03,500.28,489.42,9.98,0000 0000 0000 0000 000000
2014-09-12 11:05:03,0.00,0.31,0.00,26.51,30.81,33.14,9.45,39.05,1013.25,2022.99,3389.99,3200.99,3472.11,499.94,489.14,10.03,0000 0000 0000 0000 000000
2014-09-12 11:10:04,0.00,0.31,0.00,26.51,30.80,33.13,9.44,39.38,1013.25,2022.99,3389.98,3200.99,3472.04,499.85,488.94,10.07,0000 0000 0000 0000 000000
2014-09-12 11:15:05,0.00,0.31,0.00,26.50,30.80,33.12,9.49,39.29,1013.25,2022.99,3389.96,3200.99,3472.01,500.00,489.33,10.11,0000 0000 0000 0000 000000
2014-09-12 11:20:06,0.00,0.31,0.00,26.50,30.80,33.13,9.41,39.29,1013.29,2022.99,3389.97,3200.98,3472.03,500.02,489.44,10.15,0000 0000 0000 0000 000000
2014-09-12 11:25:07,0.00,0.31,0.00,26.46,30.80,33.11,9.38,39.17,1013.49,2022.99,3389.94,3200.98,3472.00,499.32,488.81,10.19,0000 0000 0000 0000 000000
2014-09-12 11:30:08,0.00,0.31,0.00,26.48,30.79,33.09,9.34,39.29,1013.61,2022.99,3389.98,3200.99,3472.02,499.50,489.04,10.24,0000 0000 0000 0000 000000
2014-09-12 11:35:09,0.00,0.31,0.00,26.48,30.77,33.10,9.48,39.63,1013.64,2023.00,3389.99,3200.99,3472.05,500.19,489.77,10.28,0000 0000 0000 0000 000000
2014-09-12 11:40:10,0.00,0.31,0.00,26.45,30.77,33.11,9.41,39.23,1013.64,2023.00,3389.98,3200.99,3472.03,500.44,489.99,10.32,0000 0000 0000 0000 000000
2014-09-12 11:45:11,0.00,0.31,0.00,26.45,30.77,33.09,9.40,39.32,1013.56,2023.00,3389.95,3200.99,3472.01,499.83,489.37,10.36,0000 0000 0000 0000 000000
2014-09-12 11:50:12,0.00,0.31,0.00,26.43,30.77,33.09,9.45,39.46,1013.43,2023.00,3389.85,3200.99,3472.01,499.57,488.82,10.40,0000 0000 0000 0000 000000
2014-09-12 11:55:13,0.00,0.31,0.00,26.41,30.75,33.08,9.36,38.97,1013.42,2023.00,3389.84,3200.99,3472.00,499.72,489.29,10.44,0000 0000 0000 0000 000000
2014-09-12 12:00:14,0.00,0.31,0.00,26.41,30.75,33.08,9.39,38.74,1013.48,2023.00,3389.84,3200.99,3472.00,499.07,488.71,10.49,0000 0000 0000 0000 000000
2014-09-12 12:05:15,-0.00,0.31,0.00,26.41,30.75,33.08,9.46,38.89,1013.54,2023.00,3389.79,3200.99,3472.01,500.01,489.50,10.53,0000 0000 0000 0000 000000
2014-09-12 12:10:16,0.00,0.31,0.00,26.42,30.75,33.08,9.44,38.92,1013.60,2023.00,3389.89,3201.00,3472.02,499.89,489.46,10.57,0000 0000 0000 0000 000000
2014-09-12 12:15:17,0.00,0.31,0.00,26.42,30.75,33.07,9.38,38.78,1013.67,2023.00,3389.89,3201.00,3472.01,500.08,489.55,10.61,0000 0000 0000 0000 000000
2014-09-12 12:20:18,0.00,0.31,0.00,26.41,30.73,33.07,9.44,38.77,1013.68,2023.00,3389.82,3201.00,3472.01,500.54,490.10,10.65,0000 0000 0000 0000 000000
2014-09-12 12:25:19,-0.00,0.31,0.00,26.40,30.72,33.04,9.37,38.87,1013.69,2023.00,3389.81,3201.02,3472.03,499.41,489.12,10.70,0000 0000 0000 0000 000000
2014-09-12 12:30:20,0.00,0.31,0.00,26.41,30.72,33.05,9.44,38.70,1013.69,2023.00,3389.75,3201.01,3472.00,500.01,489.67,10.74,0000 0000 0000 0000 000000
2014-09-12 12:35:21,-0.00,0.31,0.00,26.38,30.72,33.05,9.39,38.52,1013.70,2023.00,3389.80,3201.02,3472.01,500.00,489.66,10.78,0000 0000 0000 0000 000000
2014-09-12 12:40:22,0.00,0.31,0.00,26.38,30.71,33.03,9.31,38.32,1013.72,2023.01,3389.75,3201.03,3472.01,500.12,489.67,10.82,0000 0000 0000 0000 000000
2014-09-12 12:45:23,0.00,0.31,0.00,26.38,30.70,33.04,9.44,38.52,1013.81,2023.01,3389.50,3201.02,3472.00,499.65,489.45,10.86,0000 0000 0000 0000 000000
2014-09-12 12:50:24,-0.01,0.31,0.00,26.37,30.70,33.03,9.53,38.50,1014.03,2023.02,3389.69,3201.10,3472.01,500.29,489.90,10.90,0000 0000 0000 0000 000000
2014-09-12 12:55:25,0.00,0.31,0.00,26.34,30.70,33.03,9.50,38.49,1013.97,2023.01,3389.33,3201.06,3472.00,500.18,490.16,10.95,0000 0000 0000 0000 000000
2014-09-12 13:00:26,0.00,0.31,0.00,26.33,30.70,33.02,9.40,38.58,1013.88,2023.01,3389.17,3201.05,3472.00,500.33,490.17,10.99,0000 0000 0000 0000 000000
2014-09-12 13:05:27,0.00,0.31,0.00,26.33,30.68,33.00,9.52,38.88,1013.91,2023.02,3389.08,3201.05,3472.00,500.34,490.38,11.03,0000 0000 0000 0000 000000